sat.trackr.live / text

‹ back to catalog

STARLINK-32147

NORAD 60152 · 2024-120T

PAYLOAD ACTIVE UNKNOWN

§ Identity

Operator
Country
US
Launch date
2024-06-27
Launch site
AFETR
Launch vehicle
Mass (kg)
RCS (m²)

Purposes: comms

External: N2YO · Heavens-Above · Gunter

§ Orbital elements

Epoch: 2026-09-21T21:34:00.475968Z

Period
93.85 min
Inclination
53.1593°
Eccentricity
0.0001238
Mean motion
15.34393788 rev/d
Perigee alt
461.9 km
Apogee alt
463.6 km
Semi-major
6,840.9 km
B*
3.9383e-6
RAAN
125.2231°
Arg perigee
85.7635°
Mean anomaly
274.3509°
Rev number
12,646

§ Raw data

STARLINK-321471 60152U 24120T   26264.89861662 -.00000243  00000+0  39383-5 0  99992 60152  53.1593 125.2231 0001238  85.7635 274.3509 15.34393788126466

JSON: /api/v1/satellites/60152 · /tle

For live sub-satellite position, see the globe view (requires WebGL).

§ Visibility from observer

Set your observer location to see the next 7 days of passes ≥ 10°. The values pass through the URL so the page stays shareable.

No JS? Fill the form by hand. The geolocation button needs JavaScript.